When you browse on this site, cookies collect data to enhance your experience and personalize the content and advertising you see.
Visit our Privacy Policy to learn more. By continuing to use the site, you agree to this use of cookies and data.
  • In Austria
  • List of Countries
  • For 7 days
  • Water Temperature
  • Satellite Maps
  • Weather Map
  • News
  • Weather Widgets
  • user-avatar
    Login

    Hourly Weather Klagenfurt

    Today, 19 March, Tuesday

    Time Temperature Precipitation Wind Pressure Humidity
    00:00 -1°C° 0 mm 1 mps 691 mmHg 90%
    01:00 -1°C° 0 mm 1 mps 691 mmHg 90%
    02:00 -1°C° 0 mm 1 mps 691 mmHg 89%
    03:00 -2°C° 0 mm 1 mps 691 mmHg 88%
    04:00 -2°C° 0 mm 1 mps 691 mmHg 87%
    05:00 -2°C° 0 mm 1 mps 692 mmHg 87%
    06:00 -1°C° 0 mm 1 mps 692 mmHg 87%
    07:00 -1°C° 0 mm 1 mps 692 mmHg 86%
    08:00 0°C° 0.1 mm 1 mps 692 mmHg 84%
    09:00 -1°C° 0.1 mm 2 mps 693 mmHg 81%
    10:00 +2°C° 0.1 mm 2 mps 693 mmHg 79%
    11:00 +2°C° 0.1 mm 2 mps 693 mmHg 79%
    12:00 +3°C° 0.1 mm 2 mps 693 mmHg 79%
    13:00 +3°C° 0.1 mm 2 mps 693 mmHg 79%
    14:00 +3°C° 0.1 mm 2 mps 693 mmHg 80%
    15:00 +3°C° 0.1 mm 2 mps 693 mmHg 81%
    16:00 +4°C° 0.1 mm 1 mps 693 mmHg 82%
    17:00 +3°C° 0.1 mm 1 mps 694 mmHg 84%
    18:00 +2°C° 0.1 mm 1 mps 694 mmHg 87%
    19:00 +1°C° 0.1 mm 1 mps 694 mmHg 90%
    20:00 +1°C° 0 mm 1 mps 695 mmHg 90%
    21:00 0°C° 0 mm 1 mps 695 mmHg 90%
    22:00 -1°C° 0 mm 1 mps 696 mmHg 91%
    23:00 -1°C° 0 mm 1 mps 696 mmHg 91%

    Tomorrow, 20 March, Wednesday

    Time Temperature Precipitation Wind Pressure Humidity
    00:00 -2°C° 0 mm 1 mps 696 mmHg 90%
    01:00 -4°C° 0 mm 2 mps 696 mmHg 90%
    02:00 -5°C° 0 mm 2 mps 696 mmHg 89%
    03:00 -5°C° 0 mm 2 mps 696 mmHg 89%
    04:00 -5°C° 0 mm 2 mps 696 mmHg 88%
    05:00 -5°C° 0 mm 2 mps 697 mmHg 87%
    06:00 -5°C° 0 mm 2 mps 697 mmHg 86%
    07:00 -5°C° 0 mm 2 mps 698 mmHg 85%
    08:00 -2°C° 0 mm 2 mps 698 mmHg 82%
    09:00 +1°C° 0 mm 2 mps 699 mmHg 78%
    10:00 +3°C° 0 mm 2 mps 699 mmHg 74%
    11:00 +4°C° 0 mm 2 mps 699 mmHg 73%
    12:00 +4°C° 0 mm 2 mps 699 mmHg 71%
    13:00 +5°C° 0 mm 2 mps 699 mmHg 70%
    14:00 +5°C° 0 mm 2 mps 699 mmHg 70%
    15:00 +5°C° 0 mm 2 mps 699 mmHg 70%
    16:00 +5°C° 0 mm 2 mps 698 mmHg 70%
    17:00 +5°C° 0 mm 1 mps 698 mmHg 75%
    18:00 +3°C° 0 mm 1 mps 699 mmHg 79%
    19:00 +1°C° 0 mm 1 mps 699 mmHg 83%
    20:00 0°C° 0 mm 1 mps 699 mmHg 83%
    21:00 0°C° 0 mm 1 mps 699 mmHg 84%
    22:00 -1°C° 0 mm 1 mps 700 mmHg 85%
    23:00 -1°C° 0 mm 1 mps 700 mmHg 85%

    Day after tomorrow, 21 March, Thursday

    Time Temperature Precipitation Wind Pressure Humidity
    00:00 -1°C° 0 mm 1 mps 700 mmHg 85%
    01:00 -2°C° 0 mm 1 mps 700 mmHg 86%
    02:00 -2°C° 0 mm 1 mps 699 mmHg 86%
    03:00 -2°C° 0 mm 1 mps 699 mmHg 86%
    04:00 -2°C° 0 mm 1 mps 699 mmHg 86%
    05:00 -2°C° 0 mm 1 mps 699 mmHg 85%
    06:00 -1°C° 0 mm 1 mps 699 mmHg 83%
    07:00 -1°C° 0 mm 1 mps 699 mmHg 82%
    08:00 +1°C° 0 mm 1 mps 700 mmHg 76%
    09:00 +4°C° 0 mm 1 mps 700 mmHg 71%
    10:00 +6°C° 0 mm 1 mps 700 mmHg 65%
    11:00 +7°C° 0 mm 1 mps 700 mmHg 63%
    12:00 +8°C° 0 mm 1 mps 700 mmHg 61%
    13:00 +9°C° 0 mm 1 mps 700 mmHg 59%
    14:00 +9°C° 0 mm 1 mps 700 mmHg 61%
    15:00 +9°C° 0 mm 1 mps 699 mmHg 62%
    16:00 +9°C° 0 mm 1 mps 699 mmHg 64%
    17:00 +7°C° 0 mm 1 mps 699 mmHg 69%
    18:00 +5°C° 0 mm 1 mps 698 mmHg 75%
    19:00 +2°C° 0 mm 0 mps 698 mmHg 80%
    20:00 +1°C° 0 mm 0 mps 698 mmHg 81%
    21:00 +1°C° 0 mm 0 mps 699 mmHg 82%
    22:00 0°C° 0 mm 0 mps 699 mmHg 82%
    23:00 +1°C° 0 mm 1 mps 699 mmHg 82%

    22 March, Friday

    Time Temperature Precipitation Wind Pressure Humidity
    00:00 +1°C° 0 mm 1 mps 699 mmHg 82%
    01:00 0°C° 0 mm 1 mps 699 mmHg 82%
    02:00 0°C° 0 mm 1 mps 698 mmHg 81%
    03:00 0°C° 0 mm 1 mps 698 mmHg 80%
    04:00 0°C° 0 mm 1 mps 698 mmHg 80%
    05:00 +1°C° 0 mm 1 mps 698 mmHg 77%
    06:00 +1°C° 0 mm 1 mps 698 mmHg 75%
    07:00 +2°C° 0 mm 1 mps 698 mmHg 73%
    08:00 +4°C° 0 mm 1 mps 699 mmHg 68%
    09:00 +7°C° 0 mm 1 mps 699 mmHg 62%
    10:00 +10°C° 0 mm 1 mps 699 mmHg 57%
    11:00 +11°C° 0 mm 1 mps 699 mmHg 55%
    12:00 +12°C° 0 mm 1 mps 699 mmHg 53%
    13:00 +13°C° 0 mm 1 mps 699 mmHg 51%
    14:00 +13°C° 0 mm 1 mps 699 mmHg 53%
    15:00 +12°C° 0 mm 1 mps 698 mmHg 55%
    16:00 +12°C° 0 mm 1 mps 698 mmHg 56%
    17:00 +10°C° 0 mm 1 mps 698 mmHg 63%
    18:00 +6°C° 0 mm 0 mps 698 mmHg 69%
    19:00 +4°C° 0 mm 0 mps 697 mmHg 76%
    20:00 +4°C° 0 mm 0 mps 697 mmHg 76%
    21:00 +3°C° 0 mm 0 mps 698 mmHg 77%
    22:00 +3°C° 0 mm 0 mps 698 mmHg 77%
    23:00 +4°C° 0 mm 1 mps 698 mmHg 78%

    23 March, Saturday

    Time Temperature Precipitation Wind Pressure Humidity
    00:00 +3°C° 0 mm 1 mps 697 mmHg 78%
    01:00 +3°C° 0 mm 1 mps 697 mmHg 78%
    02:00 +3°C° 0 mm 1 mps 697 mmHg 78%
    03:00 +3°C° 0 mm 1 mps 697 mmHg 78%
    04:00 +3°C° 0 mm 1 mps 697 mmHg 78%
    05:00 +3°C° 0 mm 1 mps 697 mmHg 77%
    06:00 +4°C° 0 mm 1 mps 697 mmHg 75%
    07:00 +4°C° 0 mm 1 mps 697 mmHg 74%
    08:00 +7°C° 0 mm 1 mps 697 mmHg 67%
    09:00 +9°C° 0 mm 1 mps 697 mmHg 61%
    10:00 +12°C° 0 mm 1 mps 698 mmHg 55%
    11:00 +13°C° 0 mm 1 mps 698 mmHg 52%
    12:00 +14°C° 0 mm 1 mps 697 mmHg 49%
    13:00 +16°C° 0 mm 1 mps 697 mmHg 47%
    14:00 +15°C° 0 mm 1 mps 697 mmHg 49%
    15:00 +15°C° 0 mm 1 mps 697 mmHg 51%
    16:00 +15°C° 0 mm 1 mps 696 mmHg 53%
    17:00 +12°C° 0 mm 1 mps 696 mmHg 61%
    18:00 +10°C° 0 mm 1 mps 695 mmHg 69%
    19:00 +6°C° 0 mm 0 mps 695 mmHg 77%
    20:00 +6°C° 0 mm 0 mps 695 mmHg 78%
    21:00 +5°C° 0 mm 0 mps 695 mmHg 79%
    22:00 +6°C° 0 mm 1 mps 695 mmHg 81%
    23:00 +6°C° 0 mm 1 mps 695 mmHg 81%

    24 March, Sunday

    Time Temperature Precipitation Wind Pressure Humidity
    00:00 +5°C° 0 mm 1 mps 695 mmHg 81%
    01:00 +5°C° 0 mm 1 mps 695 mmHg 81%
    02:00 +5°C° 0 mm 1 mps 694 mmHg 81%
    03:00 +5°C° 0 mm 1 mps 694 mmHg 81%
    04:00 +4°C° 0 mm 1 mps 694 mmHg 81%
    05:00 +5°C° 0 mm 1 mps 694 mmHg 80%
    06:00 +5°C° 0 mm 1 mps 694 mmHg 79%
    07:00 +5°C° 0 mm 1 mps 694 mmHg 78%
    08:00 +8°C° 0 mm 1 mps 694 mmHg 70%
    09:00 +11°C° 0 mm 1 mps 695 mmHg 63%
    10:00 +14°C° 0 mm 1 mps 695 mmHg 55%
    11:00 +15°C° 0 mm 1 mps 695 mmHg 52%
    12:00 +16°C° 0 mm 1 mps 695 mmHg 48%
    13:00 +19°C° 0 mm 1 mps 695 mmHg 45%
    14:00 +18°C° 0 mm 1 mps 694 mmHg 47%
    15:00 +18°C° 0 mm 1 mps 694 mmHg 48%
    16:00 +16°C° 0 mm 1 mps 693 mmHg 50%
    17:00 +14°C° 0 mm 1 mps 693 mmHg 59%
    18:00 +12°C° 0 mm 1 mps 692 mmHg 68%
    19:00 +9°C° 0 mm 1 mps 692 mmHg 77%
    20:00 +9°C° 0 mm 1 mps 692 mmHg 79%
    21:00 +8°C° 0 mm 1 mps 692 mmHg 81%
    22:00 +8°C° 0 mm 1 mps 692 mmHg 83%
    23:00 +8°C° 0 mm 1 mps 692 mmHg 84%
    Show more